BEIDOU-3 M10 (C24)

Last updated on Jan. 19, 2020, 4:38 a.m. UTC

1 43582U 18062B   20018.18165764  .00000013  00000-0  00000-0 0  9992
2 43582  54.6505 262.3251 0006009 353.5252 267.5525  1.86232274 10019
UTC
Height (km)
Latitude
Longitude
Inclination
Orbital Period
UTC large
Height (km)
Speed (km/s)
/
Latitude / Longitude
Inclination (degrees)
Orbital Period (minutes)
Azimuth
Elevation
Range (km)
Doppler Factor
iOS Compass Heading
iOS Angle

Next 30 passes for location: Hong Kong

Rise time Rise Azimuth (degrees) Set time Set Azimuth (degrees) Duration Max altitude (degrees)

No matching passes for this satellites